Beaver Island, MI

12:25 AM EDT on April 30, 2017 (GMT -0400)
Beaver Island

Weather History for KSJX - January, 2013

Change the Weather History Date:

Saturday, January 26, 2013

  Actual Average Record
Temperature  
Mean Temperature 14 °F -  
Max Temperature 24 °F 26 °F 46 °F (2002)
Min Temperature 3 °F 14 °F -10 °F (1963)
Degree Days  
Heating Degree Days 52    
Moisture  
Dew Point 15 °F    
Average Humidity 89    
Maximum Humidity 96    
Minimum Humidity 77    
Precipitation  
Precipitation 0.00 in - - ()
Sea Level Pressure  
Sea Level Pressure 30.22 in    
Wind  
Wind Speed 3 mph (NNE)    
Max Wind Speed 8 mph    
Max Gust Speed -    
Visibility 9 miles    
Events Snow    
Averages and records for this station are not official NWS values.
T = Trace of Precipitation, MM = Missing Value Source: NWS Daily Summary

Daily Weather History Graph

Daily Weather History Graph

Search for Another Location

Airport or City:

Trip Planner

Search our weather history database for the weather conditions in past years. The results will help you decide how hot, cold, wet, or windy it might be!

Date:

Astronomy

Jan. 26, 2013 Rise Set
Actual Time 8:10 AM EST 5:40 PM EST
Civil Twilight 7:37 AM EST 6:12 PM EST
Nautical Twilight 7:01 AM EST 6:48 PM EST
Astronomical Twilight 6:26 AM EST 7:23 PM EST
Moon 5:36 PM EST (1/26) 7:25 AM EST (1/26)
Length of Visible Light 10h 34m
Length of Day
9h 30m
Full, 100% of the Moon is Illuminated
Jan 26
Full
Jan 26
Full
Feb 3
Last Quarter
Feb 10
New
Feb 17
First Quarter

Hourly Weather History & Observations

Time (EST) Temp. Windchill Dew Point Humidity Pressure Visibility Wind Dir Wind Speed Gust Speed Precip Events Conditions
12:16 AM 19.9 °F 10.1 °F 15.6 °F 83% 30.01 in 10.0 mi NW 8.1 mph - N/A   Overcast
12:35 AM 19.9 °F 10.1 °F 15.8 °F 84% 30.01 in 10.0 mi NW 8.1 mph - N/A   Overcast
12:55 AM 19.9 °F 13.4 °F 16.5 °F 87% 30.02 in 5.0 mi NW 4.6 mph - N/A Snow Light Snow
1:15 AM 19.9 °F 13.4 °F 16.7 °F 87% 30.02 in 4.0 mi NNW 4.6 mph - N/A Snow Light Snow
1:35 AM 19.9 °F 12.1 °F 17.1 °F 89% 30.02 in 4.0 mi NNW 5.8 mph - N/A Snow Light Snow
1:56 AM 19.8 °F 11.9 °F 17.1 °F 89% 30.03 in 3.0 mi NNW 5.8 mph - N/A Snow Light Snow
2:15 AM 19.8 °F 11.9 °F 16.7 °F 88% 30.04 in 2.5 mi NW 5.8 mph - N/A Snow Light Snow
2:35 AM 19.8 °F 11.9 °F 16.7 °F 88% 30.05 in 4.0 mi NNW 5.8 mph - N/A Snow Light Snow
2:56 AM 19.9 °F 12.1 °F 16.7 °F 87% 30.06 in 5.0 mi NW 5.8 mph - N/A Snow Light Snow
3:15 AM 19.9 °F 12.1 °F 16.5 °F 87% 30.07 in 5.0 mi NW 5.8 mph - N/A Snow Light Snow
3:35 AM 19.9 °F 12.1 °F 16.5 °F 87% 30.07 in 4.0 mi NW 5.8 mph - N/A Snow Light Snow
3:56 AM 19.9 °F 10.1 °F 16.7 °F 87% 30.09 in 7.0 mi NW 8.1 mph - N/A Snow Light Snow
4:15 AM 19.9 °F 12.1 °F 16.7 °F 87% 30.09 in 5.0 mi NW 5.8 mph - N/A Snow Light Snow
4:35 AM 20.1 °F 15.2 °F 17.2 °F 89% 30.10 in 5.0 mi NNW 3.5 mph - N/A Snow Light Snow
4:55 AM 19.9 °F - 17.2 °F 89% 30.10 in 7.0 mi Calm Calm - N/A Snow Light Snow
5:15 AM 18.3 °F - 16.3 °F 92% 30.10 in 10.0 mi Calm Calm - N/A   Overcast
5:36 AM 17.2 °F - 15.6 °F 93% 30.11 in 10.0 mi Calm Calm - N/A   Mostly Cloudy
5:55 AM 12.4 °F - 10.6 °F 92% 30.12 in 5.0 mi Calm Calm - N/A   Scattered Clouds
6:15 AM 11.7 °F - 9.9 °F 92% 30.13 in 10.0 mi Calm Calm - N/A   Clear
6:36 AM 9.3 °F - 7.3 °F 92% 30.14 in 4.0 mi Calm Calm - N/A   Clear
6:55 AM 7.3 °F - 5.4 °F 92% 30.15 in 4.0 mi Calm Calm - N/A   Clear
7:15 AM 5.7 °F - 3.7 °F 92% 30.15 in 7.0 mi Calm Calm - N/A   Clear
7:35 AM 3.4 °F - 0.7 °F 89% 30.16 in 10.0 mi Calm Calm - N/A   Clear
7:55 AM 5.0 °F - 2.8 °F 91% 30.17 in 10.0 mi Calm Calm - N/A   Clear
8:16 AM 4.3 °F - 1.8 °F 89% 30.17 in 10.0 mi Calm Calm - N/A   Clear
8:35 AM 3.9 °F - 1.6 °F 90% 30.18 in 10.0 mi Calm Calm - N/A   Clear
8:56 AM 4.3 °F - 1.9 °F 90% 30.20 in 10.0 mi Calm Calm - N/A   Clear
9:15 AM 4.8 °F - 2.5 °F 90% 30.20 in 7.0 mi Calm Calm - N/A   Clear
9:35 AM 5.9 °F - 3.7 °F 91% 30.21 in 10.0 mi Calm Calm - N/A   Clear
9:55 AM 5.9 °F - 3.7 °F 91% 30.23 in 10.0 mi Calm Calm - N/A Snow Light Snow
10:15 AM 13.8 °F - 12.4 °F 94% 30.24 in 10.0 mi Calm Calm - N/A   Scattered Clouds
10:36 AM 17.8 °F 10.9 °F 16.5 °F 95% 30.25 in 10.0 mi NE 4.6 mph - N/A   Clear
10:55 AM 17.6 °F 9.3 °F 16.3 °F 95% 30.26 in 10.0 mi East 5.8 mph - N/A   Clear
11:16 AM 18.5 °F 11.7 °F 17.6 °F 96% 30.26 in 10.0 mi East 4.6 mph - N/A   Clear
11:35 AM 19.6 °F 13.0 °F 18.5 °F 96% 30.27 in 10.0 mi ESE 4.6 mph - N/A   Clear
11:55 AM 20.1 °F 13.6 °F 19.2 °F 96% 30.27 in 10.0 mi East 4.6 mph - N/A   Clear
12:16 PM 21.6 °F 16.8 °F 19.8 °F 93% 30.28 in 10.0 mi ESE 3.5 mph - N/A   Clear
12:35 PM 23.0 °F 18.4 °F 19.0 °F 85% 30.28 in 10.0 mi ESE 3.5 mph - N/A   Clear
12:55 PM 23.0 °F 18.4 °F 18.9 °F 84% 30.28 in 10.0 mi ESE 3.5 mph - N/A   Mostly Cloudy
1:15 PM 23.0 °F - 19.2 °F 85% 30.28 in 10.0 mi Calm Calm - N/A   Overcast
1:36 PM 23.4 °F - 18.9 °F 83% 30.28 in 10.0 mi Calm Calm - N/A   Mostly Cloudy
1:55 PM 22.6 °F - 18.1 °F 83% 30.28 in 10.0 mi Calm Calm - N/A   Scattered Clouds
2:15 PM 23.9 °F - 19.2 °F 82% 30.28 in 10.0 mi Calm Calm - N/A   Scattered Clouds
2:36 PM 24.1 °F 19.7 °F 18.5 °F 79% 30.29 in 10.0 mi NW 3.5 mph - N/A   Scattered Clouds
2:55 PM 24.4 °F - 18.3 °F 78% 30.30 in 10.0 mi Calm Calm - N/A   Clear
3:15 PM 23.9 °F - 17.6 °F 77% 30.30 in 10.0 mi Calm Calm - N/A   Clear
3:36 PM 23.9 °F - 18.3 °F 79% 30.30 in 10.0 mi Calm Calm - N/A   Mostly Cloudy
3:55 PM 24.4 °F - 18.9 °F 79% 30.31 in 10.0 mi Calm Calm - N/A   Overcast
4:15 PM 24.8 °F 20.5 °F 18.5 °F 77% 30.31 in 10.0 mi NNW 3.5 mph - N/A   Overcast
4:36 PM 24.4 °F - 19.2 °F 81% 30.32 in 7.0 mi Calm Calm - N/A Snow Light Snow
4:55 PM 23.9 °F - 19.0 °F 82% 30.32 in 10.0 mi Calm Calm - N/A   Overcast
5:16 PM 23.5 °F - 19.0 °F 83% 30.33 in 10.0 mi Calm Calm - N/A   Overcast
5:35 PM 23.9 °F - 19.2 °F 82% 30.33 in 10.0 mi Calm Calm - N/A   Mostly Cloudy
5:55 PM 21.7 °F - 18.5 °F 87% 30.33 in 10.0 mi Calm Calm - N/A   Scattered Clouds
6:16 PM 15.6 °F - 13.6 °F 92% 30.33 in 10.0 mi Calm Calm - N/A Snow Light Snow
6:35 PM 15.3 °F - 13.8 °F 94% 30.33 in 10.0 mi Calm Calm - N/A   Scattered Clouds
6:55 PM 17.1 °F - 16.0 °F 96% 30.33 in 10.0 mi Calm Calm - N/A   Mostly Cloudy
7:16 PM 17.1 °F - 16.0 °F 96% 30.34 in 10.0 mi Calm Calm - N/A   Overcast
7:35 PM 18.5 °F - 17.4 °F 96% 30.34 in 10.0 mi Calm Calm - N/A   Overcast
7:55 PM 19.2 °F - 18.1 °F 96% 30.34 in 10.0 mi Calm Calm - N/A   Overcast
8:15 PM 19.4 °F - 18.3 °F 96% 30.34 in 10.0 mi Calm Calm - N/A   Overcast
8:35 PM 19.8 °F - 18.5 °F 95% 30.33 in 10.0 mi Calm Calm - N/A Snow Light Snow
8:56 PM 20.3 °F - 19.2 °F 96% 30.33 in 10.0 mi Calm Calm - N/A Snow Light Snow
9:15 PM 20.3 °F - 19.2 °F 96% 30.32 in 10.0 mi Calm Calm - N/A   Overcast
9:36 PM 21.0 °F - 19.6 °F 94% 30.33 in 10.0 mi Calm Calm - N/A   Overcast
9:55 PM 20.3 °F - 19.0 °F 95% 30.33 in 10.0 mi Calm Calm - N/A   Overcast
10:15 PM 21.0 °F - 19.8 °F 95% 30.33 in 10.0 mi Calm Calm - N/A   Overcast
10:36 PM 22.6 °F 18.0 °F 19.9 °F 89% 30.33 in 10.0 mi ESE 3.5 mph - N/A   Overcast
10:55 PM 23.7 °F 19.3 °F 20.7 °F 88% 30.33 in 10.0 mi ESE 3.5 mph - N/A   Overcast
11:15 PM 24.4 °F 18.6 °F 20.8 °F 86% 30.33 in 10.0 mi ESE 4.6 mph - N/A   Overcast
11:36 PM 24.6 °F 18.8 °F 21.0 °F 86% 30.33 in 10.0 mi ESE 4.6 mph - N/A   Overcast
11:55 PM 24.6 °F 20.3 °F 21.2 °F 87% 30.34 in 10.0 mi SE 3.5 mph - N/A   Overcast